Location: Kuffner-Sternwarte
(48.2130°N, 16.2960°E)
Time: 18:51:30
(UTC+02:00)

COROT - Pass Details

Date: 23 May 2017
Orbit: 600 x 890 km, 90.0° (Epoch: 24 September)

Event Time Altitude Azimuth Distance (km) Brightness Sun altitude
Rises 22:58:02 0° 349° (N) 3,190 10.7 -16.5°
Reaches altitude 10° 23:01:00 10° 332° (NNW) 2,204 9.7 -16.7°
Maximum altitude 23:04:19 19° 289° (WNW) 1,626 8.3 -17.0°
Drops below altitude 10° 23:07:29 10° 245° (WSW) 2,075 8.3 -17.2°
Sets 23:10:11 0° 227° (SW) 2,937 8.8 -17.4°
